sat.trackr.live / text

‹ back to catalog

STARLINK-32420

NORAD 61931 · 2024-207V

PAYLOAD ACTIVE UNKNOWN

§ Identity

Operator
Country
US
Launch date
2024-11-11
Launch site
AFETR
Launch vehicle
Mass (kg)
RCS (m²)

Purposes: comms

External: N2YO · Heavens-Above · Gunter

§ Orbital elements

Epoch: 2026-05-25T04:19:50.975904Z

Period
94.26 min
Inclination
43.0020°
Eccentricity
0.0001916
Mean motion
15.27613702 rev/d
Perigee alt
481.6 km
Apogee alt
484.3 km
Semi-major
6,861.1 km
B*
6.4018e-4
RAAN
209.4791°
Arg perigee
278.8140°
Mean anomaly
81.2494°
Rev number
8,642

§ Raw data

STARLINK-324201 61931U 24207V   26145.18045111  .00017414  00000+0  64018-3 0  99922 61931  43.0020 209.4791 0001916 278.8140  81.2494 15.27613702 86422

JSON: /api/v1/satellites/61931 · /tle

For live sub-satellite position, see the globe view (requires WebGL).

§ Visibility from observer

Set your observer location to see the next 7 days of passes ≥ 10°. The values pass through the URL so the page stays shareable.

No JS? Fill the form by hand. The geolocation button needs JavaScript.